Zurück zum Katalog

SL-16 DEB

AktivPO
NORAD 25862·DEBRIS·🇷🇺 Russia

Gestartet Jul 17, 1999 von Baikonur Cosmodrome

Loading…

Nächste Überflüge (nächste 24 Stunden)

TLE

AktuellSource: Space-Track

Epoche: Sep 14, 2026, 08:52 UTC

1 25862U 99039C   26257.36961885  .00000392  00000-0  10932-3 0  9993
2 25862  97.7396 228.6438 0154527 211.7470 147.4336 14.44436729425671

Verfolge SL-16 DEB in Echtzeit mit AllMySat

Download on the App Store